Home > Time Zones > World Clock > Weather > Palau > Koror > Past weeks

Flag for Palau Weather past 2 weeks in Koror, Palau

Now
86 °F

Cloudy.


Feels Like: 102 °F
Forecast: 81 / 87 °F
Wind: 7 mph from Southwest

Location: Koror / Palau Island

Current Time: Jul 31, 2014 at 6:06:32 PM

Latest Report: Jul 31, 2014 at 4:55 PM


Visibility: 15 mi

Pressure: 29.82 "Hg

Humidity: 84%

Dew point: 81 °F

Location of KororLocation

Historic Weather in Koror — Graph

°F

Koror temperature yesterday

Maximum temperature yesterday: 88 °F (at 11:55 AM)
Minimum temperature yesterday: 81 °F (at 5:50 AM)
Average temperature yesterday: 84 °F

Past Weeks' High & Low Weather Summary

 TemperatureHumidityPressure
High88 °F (Jul 20, 12:51 PM)100% (Jul 16, 5:53 PM)29.90 "Hg (Jul 16, 5:53 PM)
Low77 °F (Jul 16, 5:53 PM)74% (Jul 27, 4:51 PM)29.65 "Hg (Jul 25, 6:54 AM)
Average82 °F91%29.79 "Hg
* Reported Jul 16 4:55 PM — Jul 31 4:55 PM, Koror, Weather by CustomWeather, © 2014

Note: Actual official high and low records may vary slightly from our data, if they occured in-between our weather recording intervals... More about our weather records

Advertising

Koror weather history for previous 24 hours

 ConditionsComfort  
Time TempWeatherWind HumidityBarometerVisibility
4:55 PM
Jul 31
86 °FCloudy.7 mph84%29.82 "Hg15 mi
3:53 PM88 °FBroken clouds.8 mph79%29.81 "Hg15 mi
2:52 PM86 °FBroken clouds.8 mph84%29.81 "Hg15 mi
1:51 PM88 °FBroken clouds.9 mph79%29.81 "Hg15 mi
12:50 PM88 °FBroken clouds.10 mph79%29.83 "Hg15 mi
11:53 AM88 °FBroken clouds.7 mph79%29.85 "Hg15 mi
10:54 AM86 °FBroken clouds.7 mph84%29.86 "Hg15 mi
9:55 AM86 °FBroken clouds.8 mph84%29.87 "Hg15 mi
8:55 AM86 °FBroken clouds.7 mph84%29.87 "Hg15 mi
7:50 AM84 °FBroken clouds.5 mph89%29.87 "Hg15 mi
6:52 AM82 °FBroken clouds.3 mph94%29.86 "Hg14 mi
5:50 AM82 °FOvercast.3 mph94%29.84 "Hg14 mi
4:50 AM82 °FPassing clouds.3 mph94%29.84 "Hg14 mi
3:50 AM82 °FPassing clouds.3 mph94%29.84 "Hg14 mi
2:01 AM82 °FPassing clouds.3 mph94%29.84 "Hg14 mi
1:51 AM82 °FPassing clouds.3 mph94%29.85 "Hg14 mi
12:50 AM82 °FPassing clouds.3 mph94%29.86 "Hg14 mi
11:50 PM
Jul 30
82 °FPassing clouds.No wind94%29.87 "Hg15 mi
10:50 PM82 °FPassing clouds.No wind94%29.90 "Hg15 mi
9:55 PM81 °FPassing clouds.No wind100%29.90 "Hg15 mi
8:55 PM82 °FPassing clouds.No wind94%29.90 "Hg15 mi
7:54 PM82 °FPartly cloudy.3 mph94%29.88 "Hg15 mi
6:55 PM82 °FPartly cloudy.3 mph89%29.87 "Hg15 mi
Weather by CustomWeather, © 2014

See weather overviewHow to use our weather pages